EW9200 Weather Reports


Display with metric or nautical units.
time (UTC)temp
F
wind
direction
speed
MPH
gust
MPH
rain 1hr
in
rain 24hr
in
rain mn
in
humidity
%
barometer
mb
20260905172530 87 275 3.0 6.0 0.00 0.00 0.00 74 1014.3
20260905172030 87 122 2.0 6.0 0.00 0.00 0.00 75 1014.3
20260905171602 87 320 2.0 6.0 0.00 0.00 0.00 75 1014.4
20260905171029 87 325 1.0 4.0 0.00 0.00 0.00 74 1014.4
20260905170526 87 341 2.0 6.0 0.00 0.00 0.00 77 1014.5
20260905170053 86 349 2.0 6.0 0.00 0.00 0.00 77 1014.6
20260905165530 86 127 1.0 6.0 0.00 0.00 0.00 77 1014.5
20260905165029 86 17 2.0 6.0 0.00 0.00 0.00 78 1014.6
20260905164549 86 337 2.0 7.0 0.00 0.00 0.00 78 1014.7
20260905164029 86 307 3.0 7.0 0.00 0.00 0.00 77 1014.6
20260905163530 86 326 1.0 6.0 0.00 0.00 0.00 78 1014.6
20260905163047 86 309 2.0 6.0 0.00 0.00 0.00 78 1014.6
20260905162530 86 319 2.0 7.0 0.00 0.00 0.00 77 1014.6
20260905162029 85 303 1.0 7.0 0.00 0.00 0.00 79 1014.7
20260905161554 85 9 1.0 6.0 0.00 0.00 0.00 79 1014.7
20260905161027 85 326 3.0 6.0 0.00 0.00 0.00 78 1014.7
20260905160533 85 323 2.0 6.0 0.00 0.00 0.00 80 1014.7
20260905160053 84 293 2.0 6.0 0.00 0.00 0.00 80 1014.6
20260905155530 84 312 2.0 5.0 0.00 0.00 0.00 81 1014.6
20260905155030 84 306 1.0 5.0 0.00 0.00 0.00 82 1014.4
20260905154601 83 331 2.0 8.0 0.00 0.00 0.00 82 1014.6
20260905154030 83 304 2.0 8.0 0.00 0.00 0.00 82 1014.5
20260905153530 83 355 3.0 8.0 0.00 0.00 0.00 82 1014.5
20260905153057 83 17 2.0 6.0 0.00 0.00 0.00 83 1014.4
20260905152530 82 299 1.0 6.0 0.00 0.00 0.00 83 1014.4
20260905152029 82 8 2.0 6.0 0.00 0.00 0.00 85 1014.4
20260905151555 82 76 2.0 7.0 0.00 0.00 0.00 85 1014.2
20260905151029 82 323 2.0 7.0 0.00 0.00 0.00 85 1014.2
20260905150528 82 316 1.0 7.0 0.00 0.00 0.00 85 1014.2
20260905150050 82 307 1.0 7.0 0.00 0.00 0.00 85 1014.2
20260905145532 82 304 1.0 6.0 0.00 0.00 0.00 86 1014.2
20260905145030 81 328 1.0 7.0 0.00 0.00 0.00 87 1014.2
20260905144547 81 357 3.0 8.0 0.00 0.00 0.00 86 1014.1
20260905144027 81 332 3.0 8.0 0.00 0.00 0.00 86 1014.1
20260905143529 81 17 2.0 8.0 0.00 0.00 0.00 87 1014.0
20260905143056 81 335 4.0 8.0 0.00 0.00 0.00 85 1013.9
20260905142528 82 9 2.0 7.0 0.00 0.00 0.00 86 1013.9
20260905142027 82 333 3.0 7.0 0.00 0.00 0.00 85 1013.9
20260905141553 82 345 2.0 6.0 0.00 0.00 0.00 86 1013.9
20260905141030 82 351 2.0 6.0 0.00 0.00 0.00 87 1013.7
20260905140532 81 293 2.0 6.0 0.00 0.00 0.00 87 1013.6
20260905140052 81 328 2.0 6.0 0.00 0.00 0.00 87 1013.6
20260905135529 81 79 1.0 5.0 0.00 0.00 0.00 89 1013.6
20260905135028 81 325 1.0 3.0 0.00 0.00 0.00 88 1013.6
20260905134548 81 336 0.0 5.0 0.00 0.00 0.00 89 1013.6
20260905134028 81 319 1.0 5.0 0.00 0.00 0.00 89 1013.7
20260905133527 80 317 0.0 6.0 0.00 0.00 0.00 90 1013.7
20260905133054 80 276 1.0 6.0 0.00 0.00 0.00 90 1013.9
20260905132528 80 309 3.0 6.0 0.00 0.00 0.00 90 1014.0
20260905132028 80 8 2.0 5.0 0.00 0.00 0.00 91 1014.0
20260905131552 80 321 1.0 6.0 0.00 0.00 0.00 91 1013.9
20260905131030 80 319 0.0 6.0 0.00 0.00 0.00 91 1013.5
20260905130529 80 297 1.0 6.0 0.00 0.00 0.00 92 1013.5
20260905130043 79 5 1.0 4.0 0.00 0.00 0.00 93 1013.4
20260905125527 79 316 1.0 4.0 0.00 0.00 0.00 93 1013.3
20260905125028 79 330 1.0 4.0 0.00 0.00 0.00 93 1013.3
20260905124543 79 349 1.0 3.0 0.00 0.00 0.00 95 1013.2
20260905124033 78 339 0.0 2.0 0.00 0.00 0.00 95 1013.1
20260905123527 78 339 1.0 2.0 0.00 0.00 0.00 96 1013.1
20260905123049 77 6 0.0 2.0 0.00 0.00 0.00 96 1013.0
20260905122528 77 331 0.0 1.0 0.00 0.00 0.00 97 1013.0
20260905122027 76 0 0.0 1.0 0.00 0.00 0.00 98 1012.9
20260905121600 76 0 0.0 1.0 0.00 0.00 0.00 99 1012.9
20260905121028 76 342 0.0 1.0 0.00 0.00 0.00 99 1013.0
20260905120532 76 0 0.0 1.0 0.00 0.00 0.00 99 1012.9
20260905120053 76 0 0.0 0.0 0.00 0.00 0.00 99 1013.0
20260905115528 75 0 0.0 1.0 0.00 0.00 0.00 99 1012.8
20260905115029 75 0 0.0 1.0 0.00 0.00 0.00 100 1012.9
20260905114550 75 0 0.0 1.0 0.00 0.00 0.00 100 1012.7
20260905114027 75 0 0.0 0.0 0.00 0.00 0.00 100 1012.7
20260905113527 75 0 0.0 0.0 0.00 0.00 0.00 100 1012.4
20260905113102 75 0 0.0 0.0 0.00 0.00 0.00 100 1012.5
20260905112530 75 0 0.0 0.0 0.00 0.00 0.00 99 1012.4
20260905112027 75 0 0.0 0.0 0.00 0.00 0.00 99 1012.4
20260905111544 75 0 0.0 0.0 0.00 0.00 0.00 99 1012.3
20260905111029 75 0 0.0 0.0 0.00 0.00 0.00 99 1012.4
20260905110528 75 0 0.0 0.0 0.00 0.00 0.00 99 1012.1
20260905110042 75 0 0.0 0.0 0.00 0.00 0.00 99 1012.2
20260905105530 75 0 0.0 0.0 0.00 0.00 0.00 99 1012.1
20260905105029 75 0 0.0 0.0 0.00 0.00 0.00 99 1012.3
20260905104542 75 0 0.0 0.0 0.00 0.00 0.00 99 1012.3
20260905104031 75 0 0.0 0.0 0.00 0.00 0.00 99 1012.4
20260905103527 75 0 0.0 0.0 0.00 0.00 0.00 99 1012.3
20260905103049 75 0 0.0 0.0 0.00 0.00 0.00 99 1012.3
20260905102528 75 0 0.0 0.0 0.00 0.00 0.00 99 1012.5
20260905102029 75 0 0.0 0.0 0.00 0.00 0.00 99 1012.4
20260905101544 75 0 0.0 0.0 0.00 0.00 0.00 99 1012.3
20260905101030 75 0 0.0 0.0 0.00 0.00 0.00 99 1012.2
20260905100525 75 0 0.0 0.0 0.00 0.00 0.00 99 1012.2
20260905100047 75 0 0.0 0.0 0.00 0.00 0.00 99 1012.3
20260905095528 75 0 0.0 0.0 0.00 0.00 0.00 99 1012.4
20260905095028 75 0 0.0 0.0 0.00 0.00 0.00 99 1012.2
20260905094540 75 0 0.0 0.0 0.00 0.00 0.00 99 1012.5
20260905094028 75 0 0.0 0.0 0.00 0.00 0.00 99 1012.5
20260905093527 75 0 0.0 0.0 0.00 0.00 0.00 99 1012.4
20260905093054 75 0 0.0 0.0 0.00 0.00 0.00 99 1012.4
20260905092528 75 0 0.0 0.0 0.00 0.00 0.00 99 1012.2
20260905092029 75 0 0.0 0.0 0.00 0.00 0.00 99 1012.4
20260905091543 75 0 0.0 0.0 0.00 0.00 0.00 99 1012.4
20260905091028 75 0 0.0 1.0 0.00 0.00 0.00 99 1012.3
20260905090526 75 0 0.0 1.0 0.00 0.00 0.00 99 1012.5
20260905090044 75 0 0.0 0.0 0.00 0.00 0.00 98 1012.3
20260905085531 75 0 0.0 0.0 0.00 0.00 0.00 98 1012.4
20260905085030 75 0 0.0 0.0 0.00 0.00 0.00 98 1012.4
20260905084551 75 0 0.0 0.0 0.00 0.00 0.00 98 1012.3
20260905084028 75 0 0.0 0.0 0.00 0.00 0.00 98 1012.3
20260905083527 76 0 0.0 1.0 0.00 0.00 0.00 97 1012.4
20260905083050 76 0 0.0 1.0 0.00 0.00 0.00 98 1012.2
20260905082529 76 0 0.0 0.0 0.00 0.00 0.00 97 1012.3
20260905082029 76 0 0.0 0.0 0.00 0.00 0.00 97 1012.3
20260905081544 76 0 0.0 0.0 0.00 0.00 0.00 96 1012.4
20260905081028 76 0 0.0 0.0 0.00 0.00 0.00 96 1012.4
20260905080528 77 0 0.0 0.0 0.00 0.00 0.00 96 1012.4
20260905080047 77 0 0.0 2.0 0.00 0.00 0.00 96 1012.5
20260905075526 77 0 0.0 2.0 0.00 0.00 0.00 96 1012.4
20260905075025 77 0 0.0 2.0 0.00 0.00 0.00 96 1012.5
20260905074541 77 321 0.0 1.0 0.00 0.00 0.00 96 1012.4
20260905074028 77 275 0.0 1.0 0.00 0.00 0.00 97 1012.3
20260905073529 77 0 0.0 0.0 0.00 0.00 0.00 97 1012.2
20260905073048 77 0 0.0 0.0 0.00 0.00 0.00 97 1012.2
20260905072528 77 0 0.0 0.0 0.00 0.00 0.00 97 1012.4
20260905072029 76 0 0.0 0.0 0.00 0.00 0.00 97 1012.3
20260905071548 76 0 0.0 0.0 0.00 0.00 0.00 97 1012.3
20260905071031 77 0 0.0 0.0 0.00 0.00 0.00 97 1012.4
20260905070529 77 0 0.0 0.0 0.00 0.00 0.00 97 1012.4
20260905070048 77 0 0.0 0.0 0.00 0.00 0.00 97 1012.5
20260905065528 77 0 0.0 0.0 0.00 0.00 0.00 96 1012.4
20260905065028 77 0 0.0 0.0 0.00 0.00 0.00 96 1012.4
20260905064545 77 0 0.0 0.0 0.00 0.00 0.00 97 1012.4
20260905064027 77 0 0.0 0.0 0.00 0.00 0.00 96 1012.4
20260905063528 77 0 0.0 0.0 0.00 0.00 0.00 96 1012.5
20260905063049 77 0 0.0 0.0 0.00 0.00 0.00 96 1012.6
20260905062528 78 0 0.0 0.0 0.00 0.00 0.00 95 1012.5
20260905062029 78 0 0.0 0.0 0.00 0.00 0.00 95 1012.7
20260905061553 78 0 0.0 0.0 0.00 0.00 0.00 95 1012.6
20260905061028 78 0 0.0 0.0 0.00 0.00 0.00 94 1012.8
20260905060528 78 0 0.0 0.0 0.00 0.00 0.00 94 1012.7
20260905060057 78 0 0.0 0.0 0.00 0.00 0.00 94 1012.8
20260905055528 79 0 0.0 0.0 0.00 0.00 0.00 94 1012.8
20260905055026 79 0 0.0 0.0 0.00 0.00 0.00 93 1012.7
20260905054542 79 0 0.0 0.0 0.00 0.00 0.00 93 1012.9
20260905054026 79 0 0.0 0.0 0.00 0.00 0.00 92 1012.7
20260905053528 79 0 0.0 0.0 0.00 0.00 0.00 92 1012.6
20260905053054 80 0 0.0 0.0 0.00 0.00 0.00 92 1012.4
20260905052527 80 0 0.0 0.0 0.00 0.00 0.00 92 1012.5
20260905052027 80 0 0.0 1.0 0.00 0.00 0.00 91 1012.5
20260905051555 80 0 0.0 1.0 0.00 0.00 0.00 92 1012.5
20260905051027 80 0 0.0 2.0 0.00 0.00 0.00 92 1012.5
20260905050526 80 0 0.0 2.0 0.00 0.00 0.00 92 1012.5
20260905050045 80 0 0.0 0.0 0.00 0.00 0.00 92 1012.4
20260905045528 80 0 0.0 0.0 0.00 0.00 0.00 92 1012.5
20260905045027 80 0 0.0 0.0 0.00 0.00 0.00 92 1012.5
20260905044555 80 0 0.0 0.0 0.00 0.00 0.00 92 1012.6
20260905044026 80 0 0.0 0.0 0.00 0.00 0.00 92 1012.7
20260905043526 80 0 0.0 0.0 0.00 0.00 0.00 92 1012.7
20260905043058 80 0 0.0 0.0 0.00 0.00 0.00 93 1012.8
20260905042528 80 0 0.0 0.0 0.00 0.00 0.00 93 1013.0
20260905042027 80 0 0.0 0.0 0.00 0.00 0.00 93 1012.7
20260905041550 79 0 0.0 0.0 0.00 0.00 0.00 93 1012.8
20260905041028 79 0 0.0 0.0 0.00 0.00 0.00 94 1012.8
20260905040529 79 0 0.0 0.0 0.00 0.00 0.00 94 1013.0
20260905040053 79 0 0.0 0.0 0.00 0.00 0.00 95 1013.0
20260905035527 79 0 0.0 0.0 0.00 0.00 0.00 96 1013.1
20260905035025 79 0 0.0 0.0 0.00 0.00 0.00 96 1013.1
20260905034552 79 0 0.0 0.0 0.00 0.00 0.00 96 1013.2
20260905034030 79 0 0.0 0.0 0.00 0.00 0.00 96 1013.4
20260905033532 79 0 0.0 0.0 0.00 0.00 0.00 95 1013.4
20260905033051 79 0 0.0 0.0 0.00 0.00 0.00 95 1013.4
20260905032529 79 0 0.0 0.0 0.00 0.00 0.00 95 1013.3
20260905032031 79 0 0.0 0.0 0.00 0.00 0.00 94 1013.4
20260905031549 80 0 0.0 0.0 0.00 0.00 0.00 94 1013.5
20260905031025 80 0 0.0 0.0 0.00 0.00 0.00 94 1013.5
20260905030526 80 0 0.0 0.0 0.00 0.00 0.00 94 1013.5
20260905025530 80 0 0.0 0.0 0.00 0.00 0.00 93 1013.4
20260905025032 80 0 0.0 0.0 0.00 0.00 0.00 94 1013.4
20260905024547 80 0 0.0 0.0 0.00 0.00 0.00 94 1013.4
20260905024030 80 0 0.0 0.0 0.00 0.00 0.00 94 1013.4
20260905023530 80 0 0.0 0.0 0.00 0.00 0.00 94 1013.3
20260905023047 80 0 0.0 0.0 0.00 0.00 0.00 94 1013.3
20260905022530 80 0 0.0 0.0 0.00 0.00 0.00 93 1013.3
20260905022032 80 0 0.0 0.0 0.00 0.00 0.00 93 1013.1
20260905021544 80 0 0.0 0.0 0.00 0.00 0.00 92 1013.0
20260905021030 80 0 0.0 0.0 0.00 0.00 0.00 92 1013.0
20260905020530 81 0 0.0 0.0 0.00 0.00 0.00 91 1012.9
20260905020107 81 0 0.0 0.0 0.00 0.00 0.00 90 1012.8
20260905015530 81 0 0.0 0.0 0.00 0.00 0.00 90 1012.9
20260905015029 82 0 0.0 0.0 0.00 0.00 0.00 89 1012.8
20260905014554 82 0 0.0 0.0 0.00 0.00 0.00 89 1012.9
20260905014031 82 0 0.0 0.0 0.00 0.00 0.00 88 1012.7
20260905013530 83 0 0.0 0.0 0.00 0.00 0.00 88 1012.7
20260905013052 83 0 0.0 0.0 0.00 0.00 0.00 87 1012.6
20260905012531 83 0 0.0 0.0 0.00 0.00 0.00 87 1012.6
20260905012031 83 0 0.0 0.0 0.00 0.00 0.00 86 1012.5
20260905011630 83 0 0.0 0.0 0.00 0.00 0.00 86 1012.4
20260905011031 84 0 0.0 0.0 0.00 0.00 0.00 85 1012.3
20260905010531 84 0 0.0 0.0 0.00 0.00 0.00 85 1012.2
20260905010054 84 0 0.0 0.0 0.00 0.00 0.00 84 1012.2
20260905005530 84 0 0.0 1.0 0.00 0.00 0.00 84 1012.2
20260905005029 85 0 0.0 1.0 0.00 0.00 0.00 83 1012.0
20260905004550 85 0 0.0 1.0 0.00 0.00 0.00 82 1012.0
20260905004030 85 0 0.0 1.0 0.00 0.00 0.00 82 1011.9
20260905003530 86 0 0.0 1.0 0.00 0.00 0.00 81 1011.8
20260905003048 86 0 0.0 1.0 0.00 0.00 0.00 80 1012.0
20260905002529 86 0 0.0 0.0 0.00 0.00 0.00 79 1012.2
20260905002030 87 0 0.0 0.0 0.00 0.00 0.00 78 1012.2
20260905001600 87 0 0.0 0.0 0.00 0.00 0.00 78 1012.2
20260905001030 87 0 0.0 0.0 0.00 0.00 0.00 77 1012.2
20260905000531 88 0 0.0 0.0 0.00 0.00 0.00 77 1012.2
20260905000056 88 0 0.0 0.0 0.00 0.00 0.00 76 1012.1
20260904235530 88 0 0.0 0.0 0.00 0.00 0.00 75 1012.1
20260904235034 89 0 0.0 3.0 0.00 0.00 0.00 75 1012.1
20260904234551 89 0 0.0 3.0 0.00 0.00 0.00 74 1012.1
20260904234030 89 234 0.0 3.0 0.00 0.00 0.00 74 1012.1
20260904233530 89 229 1.0 3.0 0.00 0.00 0.00 74 1012.1
20260904233054 89 209 1.0 3.0 0.00 0.00 0.00 73 1012.2
20260904232530 90 239 1.0 3.0 0.00 0.00 0.00 73 1012.4
20260904232030 90 223 1.0 5.0 0.00 0.00 0.00 72 1012.2
20260904231553 90 203 1.0 5.0 0.00 0.00 0.00 72 1012.2
20260904231030 90 144 1.0 5.0 0.00 0.00 0.00 71 1012.2
20260904230530 91 212 1.0 4.0 0.00 0.00 0.00 71 1012.3
20260904230054 91 236 1.0 4.0 0.00 0.00 0.00 71 1012.2
20260904225530 91 236 1.0 4.0 0.00 0.00 0.00 70 1012.1
20260904225030 91 177 2.0 6.0 0.00 0.00 0.00 70 1012.3
20260904224552 91 353 2.0 6.0 0.00 0.00 0.00 69 1012.3
20260904224030 92 122 1.0 5.0 0.00 0.00 0.00 70 1012.3
20260904223530 92 250 2.0 6.0 0.00 0.00 0.00 71 1012.3
20260904223048 92 253 2.0 7.0 0.00 0.00 0.00 70 1012.2
20260904222529 92 256 2.0 8.0 0.00 0.00 0.00 70 1012.4
20260904222028 92 240 1.0 8.0 0.00 0.00 0.00 70 1012.2
20260904221557 92 179 2.0 8.0 0.00 0.00 0.00 70 1012.2
20260904221031 92 0 2.0 6.0 0.00 0.00 0.00 70 1012.2
20260904220531 92 224 2.0 6.0 0.00 0.00 0.00 69 1012.2
20260904220058 92 244 2.0 6.0 0.00 0.00 0.00 70 1012.2
20260904215530 91 151 2.0 5.0 0.00 0.00 0.00 70 1012.2
20260904215032 91 252 1.0 5.0 0.00 0.00 0.00 71 1012.1
20260904214553 92 154 2.0 5.0 0.00 0.00 0.00 71 1012.2
20260904214027 92 211 2.0 7.0 0.00 0.00 0.00 71 1012.1
20260904213530 92 196 3.0 10.0 0.00 0.00 0.00 70 1012.2
20260904213048 93 143 3.0 10.0 0.00 0.00 0.00 69 1012.0
20260904212527 93 217 4.0 8.0 0.00 0.00 0.00 69 1012.1
20260904212029 93 235 3.0 8.0 0.00 0.00 0.00 69 1012.0
20260904211555 93 129 4.0 8.0 0.00 0.00 0.00 69 1012.1
20260904211030 93 249 4.0 7.0 0.00 0.00 0.00 69 1012.2
20260904210529 93 208 3.0 7.0 0.00 0.00 0.00 68 1012.4
20260904210050 93 229 3.0 7.0 0.00 0.00 0.00 68 1012.4
20260904205532 93 259 2.0 7.0 0.00 0.00 0.00 68 1012.3
20260904205029 93 198 3.0 7.0 0.00 0.00 0.00 68 1012.5
20260904204556 93 148 3.0 6.0 0.00 0.00 0.00 69 1012.6
20260904204031 93 290 3.0 7.0 0.00 0.00 0.00 69 1012.8
20260904203530 93 176 3.0 7.0 0.00 0.00 0.00 68 1012.8
20260904203044 93 169 4.0 7.0 0.00 0.00 0.00 68 1013.0
20260904202528 93 155 3.0 7.0 0.00 0.00 0.00 68 1012.9
20260904202032 93 161 3.0 7.0 0.00 0.00 0.00 68 1012.9
20260904201555 93 204 2.0 7.0 0.00 0.00 0.00 68 1013.0
20260904201027 93 163 3.0 7.0 0.00 0.00 0.00 68 1013.0
20260904200530 93 172 3.0 6.0 0.00 0.00 0.00 68 1013.0
20260904200051 92 152 2.0 6.0 0.00 0.00 0.00 68 1013.1
20260904195531 92 164 2.0 6.0 0.00 0.00 0.00 69 1013.1
20260904195029 92 175 3.0 7.0 0.00 0.00 0.00 69 1013.3
20260904194606 92 200 3.0 7.0 0.00 0.00 0.00 68 1013.3
20260904194030 92 207 2.0 6.0 0.00 0.00 0.00 69 1013.4
20260904193530 91 226 3.0 6.0 0.00 0.00 0.00 69 1013.4
20260904193055 91 216 4.0 9.0 0.00 0.00 0.00 67 1013.5
20260904192530 92 191 4.0 9.0 0.00 0.00 0.00 69 1013.7
20260904192028 91 173 3.0 6.0 0.00 0.00 0.00 68 1013.8
20260904191552 92 193 3.0 6.0 0.00 0.00 0.00 67 1013.9
20260904191028 92 75 2.0 7.0 0.00 0.00 0.00 67 1013.9
20260904190530 91 149 2.0 7.0 0.00 0.00 0.00 68 1013.9
20260904190046 90 193 3.0 7.0 0.00 0.00 0.00 70 1014.0
20260904185529 90 159 3.0 7.0 0.00 0.00 0.00 69 1014.1
20260904185030 90 188 3.0 6.0 0.00 0.00 0.00 70 1014.1
20260904184556 90 129 1.0 8.0 0.00 0.00 0.00 72 1014.2
20260904184030 90 272 2.0 8.0 0.00 0.00 0.00 70 1014.2
20260904183532 90 131 4.0 8.0 0.00 0.00 0.00 69 1014.2
20260904183110 90 134 3.0 7.0 0.00 0.00 0.00 71 1014.3
20260904182530 89 94 3.0 7.0 0.00 0.00 0.00 70 1014.5
20260904182031 90 146 2.0 6.0 0.00 0.00 0.00 69 1014.7
20260904181604 89 176 2.0 5.0 0.00 0.00 0.00 71 1014.7
20260904181028 89 136 2.0 10.0 0.00 0.00 0.00 72 1015.0
20260904180528 88 314 3.0 10.0 0.00 0.00 0.00 71 1015.2
20260904180044 88 120 3.0 8.0 0.00 0.00 0.00 70 1015.1
20260904175529 88 169 1.0 8.0 0.00 0.00 0.00 72 1015.3
20260904175026 88 117 2.0 9.0 0.00 0.00 0.00 71 1015.4
20260904174554 87 98 3.0 9.0 0.00 0.00 0.00 71 1015.4
20260904174030 87 139 2.0 14.0 0.00 0.00 0.00 71 1015.5
20260904173528 87 89 5.0 14.0 0.00 0.00 0.00 72 1015.4
20260904173051 87 78 3.0 11.0 0.00 0.00 0.00 71 1015.4